Contract 0x3732e3c9668ac941519fd42a3cf1fc4970e0ef5e

 
Ad
Ad
Txn Hash Method
Block
From
To
Value [Txn Fee]
0xb3b005942322eb6885a61e5da4baa01ac76cd2c9885f3271c8e1eaba7a90598aSell195184132021-09-26 1:46:4966 days 1 hr ago0xc83aa25fa5829c789df2ac5976b4a26d49c648ff IN  0x3732e3c9668ac941519fd42a3cf1fc4970e0ef5e0 MATIC0.000180834
0x11e966a0ccb10ace8113303d0ef4712b0743a92d50e9a7c1aaff8cffc1a9aa40Sell194433982021-09-24 3:19:1468 days 4 mins ago0xc83aa25fa5829c789df2ac5976b4a26d49c648ff IN  0x3732e3c9668ac941519fd42a3cf1fc4970e0ef5e0 MATIC0.000198957
0x6813653ae323d63e0b7ad71f803811e75af8bc1e91a59dc2a47f0c15caf8f03bSell194433562021-09-24 3:17:4668 days 6 mins ago0xc83aa25fa5829c789df2ac5976b4a26d49c648ff IN  0x3732e3c9668ac941519fd42a3cf1fc4970e0ef5e0 MATIC0.00018087
0x4c04838b81fef1eae1d315a79921460acb5c7d2c633cc3a6e497b3b7f10a7cceSell194433132021-09-24 3:16:1668 days 7 mins ago0xc83aa25fa5829c789df2ac5976b4a26d49c648ff IN  0x3732e3c9668ac941519fd42a3cf1fc4970e0ef5e0 MATIC0.00018087
0x1e54d775dc05418a64bebd01aa72feafdb722aaf457b98d5fd73f024cff542e6Buy194425722021-09-24 2:47:1568 days 36 mins ago0xc83aa25fa5829c789df2ac5976b4a26d49c648ff IN  0x3732e3c9668ac941519fd42a3cf1fc4970e0ef5e0 MATIC0.00723045
0xc9f73341f71ee84573aaa5c1f5fae17b995ec96e7a7a2d9f658d3a68b07d39a8Buy194425242021-09-24 2:45:3568 days 38 mins ago0xc83aa25fa5829c789df2ac5976b4a26d49c648ff IN  0x3732e3c9668ac941519fd42a3cf1fc4970e0ef5e0 MATIC0.00723045
0x60bab0ece3298fd1bef06b9585b6615cfe72eff6d6720fb4b4f122ce80580e2dBuy194420552021-09-24 2:29:2868 days 54 mins ago0xc83aa25fa5829c789df2ac5976b4a26d49c648ff IN  0x3732e3c9668ac941519fd42a3cf1fc4970e0ef5e0 MATIC0.00723045
0x4c1bb983ae9c70d8f7212406453e3c00eefd32140a45e453753e5cf6aa86b8beBuy194414692021-09-24 2:07:0468 days 1 hr ago0xc83aa25fa5829c789df2ac5976b4a26d49c648ff IN  0x3732e3c9668ac941519fd42a3cf1fc4970e0ef5e0 MATIC0.0295452
0x7d75220ad7226e1e6f25c023e6cf18515e4a851f34cd03d4af2dd2eeb9adfeb6Buy194414612021-09-24 2:06:4868 days 1 hr ago0xc83aa25fa5829c789df2ac5976b4a26d49c648ff IN  0x3732e3c9668ac941519fd42a3cf1fc4970e0ef5e0 MATIC0.0295452
0x092adae5f8c44f3a67276ec1095e6dbf14ed254cf7e0e9b070f882e63abac6c2Buy194414272021-09-24 2:05:3868 days 1 hr ago0xc83aa25fa5829c789df2ac5976b4a26d49c648ff IN  0x3732e3c9668ac941519fd42a3cf1fc4970e0ef5e0 MATIC0.0295452
0xdeb428eb23417435621cf89b99d9cbf769123e08d20c8184d65a56be29c8500cBuy194414182021-09-24 2:05:2068 days 1 hr ago0xc83aa25fa5829c789df2ac5976b4a26d49c648ff IN  0x3732e3c9668ac941519fd42a3cf1fc4970e0ef5e0 MATIC0.0295452
0x0446a4c6c3447a60e1d78c35d76d9087465f99b015c1bde0201353484a0f1340Buy194414082021-09-24 2:05:0068 days 1 hr ago0xc83aa25fa5829c789df2ac5976b4a26d49c648ff IN  0x3732e3c9668ac941519fd42a3cf1fc4970e0ef5e0 MATIC0.0295452
0x97404799eeae211d0489669439791f95c78f5dda769cd5418dbee1cf0ad70ec1Buy194414012021-09-24 2:04:4268 days 1 hr ago0xc83aa25fa5829c789df2ac5976b4a26d49c648ff IN  0x3732e3c9668ac941519fd42a3cf1fc4970e0ef5e0 MATIC0.0295452
0x4be7d7f3e3be2686c58a8e94fb1be74f1c1d9fa7291f60ccf9bf1de553c58074Buy194413952021-09-24 2:04:3068 days 1 hr ago0xc83aa25fa5829c789df2ac5976b4a26d49c648ff IN  0x3732e3c9668ac941519fd42a3cf1fc4970e0ef5e0 MATIC0.0295452
0xa52dad57cbb313d785da447899df8dfeafe77afed89f1c7aa9dd41a655520919Buy194413132021-09-24 2:01:2768 days 1 hr ago0xc83aa25fa5829c789df2ac5976b4a26d49c648ff IN  0x3732e3c9668ac941519fd42a3cf1fc4970e0ef5e0 MATIC0.0295452
0xc5e3aeb819a36bb1347c5aeda17654a72b419bd7cf64c23ef890916fac6877c2Buy194412432021-09-24 1:58:5668 days 1 hr ago0xc83aa25fa5829c789df2ac5976b4a26d49c648ff IN  0x3732e3c9668ac941519fd42a3cf1fc4970e0ef5e0 MATIC0.0295452
0xbdb171acce06d211e62dfcfdc72f8a29aadfb28e5e5d8bbaa82b76bdc9b455b5Buy194412382021-09-24 1:58:4668 days 1 hr ago0xc83aa25fa5829c789df2ac5976b4a26d49c648ff IN  0x3732e3c9668ac941519fd42a3cf1fc4970e0ef5e0 MATIC0.0295452
0xfdffc1abab02b54a0d30772afdee247c86ee59febc1f694de99ea2ab4f8a15f2Buy194412322021-09-24 1:58:3468 days 1 hr ago0xc83aa25fa5829c789df2ac5976b4a26d49c648ff IN  0x3732e3c9668ac941519fd42a3cf1fc4970e0ef5e0 MATIC0.0295452
0xa9e6cfad6a3fa9db6f16489193405b31cd9f365b92dd3dcfa495c68a1ae1ff4fBuy194407082021-09-24 1:38:2668 days 1 hr ago0xc83aa25fa5829c789df2ac5976b4a26d49c648ff IN  0x3732e3c9668ac941519fd42a3cf1fc4970e0ef5e0 MATIC0.0295452
0x48714ad9ec906ba4bc27e5d483398a3f9eac7eb592a68e29b65322ffb7683e1aBuy194406992021-09-24 1:38:0468 days 1 hr ago0xc83aa25fa5829c789df2ac5976b4a26d49c648ff IN  0x3732e3c9668ac941519fd42a3cf1fc4970e0ef5e0 MATIC0.0295452
0x898789d181eb92b9480f2bab29910e119731c8ad25b3b0f8cd44a618ac73e5ecBuy194406962021-09-24 1:37:5868 days 1 hr ago0xc83aa25fa5829c789df2ac5976b4a26d49c648ff IN  0x3732e3c9668ac941519fd42a3cf1fc4970e0ef5e0 MATIC0.0295452
0xe1b7870d280679e39fc7a6a4557c2641611eadc3e86368dcf6d19dfc542dafaeBuy194406902021-09-24 1:37:4668 days 1 hr ago0xc83aa25fa5829c789df2ac5976b4a26d49c648ff IN  0x3732e3c9668ac941519fd42a3cf1fc4970e0ef5e0 MATIC0.0295452
0x538fceaf361b7d0861924746489def78583622cc11716ebb52d9ae1ecbaddc9dBuy194406852021-09-24 1:37:3668 days 1 hr ago0xc83aa25fa5829c789df2ac5976b4a26d49c648ff IN  0x3732e3c9668ac941519fd42a3cf1fc4970e0ef5e0 MATIC0.0295452
0x8d1cab4b034055e815a03c60477a4756c7cf7e880ce7fe26941830f09e28751eBuy194406712021-09-24 1:37:0868 days 1 hr ago0xc83aa25fa5829c789df2ac5976b4a26d49c648ff IN  0x3732e3c9668ac941519fd42a3cf1fc4970e0ef5e0 MATIC0.0295452
0x4decd10e418de1930e1161402ddba73715a516f4223a80d5f85312228d1d2f78Buy194406552021-09-24 1:36:3668 days 1 hr ago0xc83aa25fa5829c789df2ac5976b4a26d49c648ff IN  0x3732e3c9668ac941519fd42a3cf1fc4970e0ef5e0 MATIC0.0295452
[ Download CSV Export 
Latest 1 internal transaction
Parent Txn Hash Block From To Value
0xc6cb02a137f05aa8f57917f80448b63bde51405bf6e99b573de77a988fd3c2d7194358232021-09-23 22:37:3768 days 4 hrs ago 0x8b9805a2f595b6705e74f7310829f2d299d21522  Contract Creation0 MATIC
[ Download CSV Export 
Loading
Are you the contract creator? Verify and Publish your contract source code today!
This contract was created by the contract code at 0x8b9805a2f595b6705e74f7310829f2d299d21522
Note: We also found another 2065 contracts with exact matching byte codes

Decompile ByteCode
0x363d3d373d3d3d363d730b8a853ad2e8984a429f36dabc75f0cbdd5534f85af43d82803e903d91602b57fd5bf3 
Block Transaction Gas Used Reward
Age Block Fee Address BC Fee Address Voting Power Jailed Incoming
Block Uncle Number Difficulty Gas Used Reward
Loading
Loading
Make sure to use the "Vote Down" button for any spammy posts, and the "Vote Up" for interesting conversations.